Location: *
(37.9500°N, 27.3666°E)
Time: 03:59:46
(UTC+00:00)

Tiangong - Pass Details

Date: 24 October 2021
Orbit: 380 x 384 km, 41.5° (Epoch: 03 December)

Event Time Altitude Azimuth Distance (km) Brightness Sun altitude
Rises 16:51:29 0° 286° (WNW) 2,271 6.4 -18.5°
Reaches altitude 10° 16:53:37 10° 292° (WNW) 1,414 4.9 -18.9°
Enters shadow 16:56:34 46° 358° (N) 530 1.7 -19.5°
